Lid_Strength_Index
-1 -1 -0 2 7 7 9 8 6 7 7 5 4 5 7 6 8 12 1 0 -0 -0 -1 -1 -1 -1 -1 -1 -1 -1 -1 -1 -1 -1 -1 -1 -1 -1 -1 -1 -1 -1 -1 -1 -1 -1 -1 -1 -1
-1 -0 1 4 8 12 12 6 7 6 5 4 4 5 6 8 4 3 2 0 -1 -1 -1 -1 -1 -1 -1 -1 -1 -1 -1 -1 -1 -1 -1 -1 -1 -1 -1 -1 -1 -1 -1 -1 -1 -1 -1 -1 -1
0 -0 4 5 7 11 9 6 6 5 4 5 6 4 5 7 3 3 0 -0 -1 -1 -1 -1 -1 -1 -1 -1 -1 -1 -1 -1 -1 -1 -1 -1 -1 -1 -1 -1 -1 -1 -1 -1 -1 -1 -1 -1 -1
1 2 3 6 9 7 7 5 5 5 5 4 4 7 4 2 3 1 -0 -1 -0 -1 -1 -1 -1 -1 -1 -1 -1 -1 -1 -1 -1 -1 -1 -1 -1 -1 -1 -1 -1 -1 -1 -1 -1 -1 -1 -1 -1
1 3 6 7 8 7 5 5 5 6 5 5 4 7 6 2 0 0 -0 -0 -0 -1 -1 -1 -1 -1 -1 -1 -1 -1 -1 -1 -1 -1 -1 -1 -1 -1 -1 -1 -1 -1 -1 -1 -1 -1 -1 -1 -1
4 3 7 9 10 7 5 4 5 5 5 5 5 6 5 1 1 1 -0 -0 -1 -0 -1 -1 -1 -1 -1 -1 -1 -1 -1 -1 -1 -1 -1 -1 -1 -1 -1 -1 -1 -1 -1 -1 -1 -1 -1 -1 -1
5 5 7 7 8 7 6 4 5 5 5 6 4 7 4 2 1 0 -0 -0 -1 -1 -1 -1 -1 -1 -1 -1 -1 -1 -1 -1 -1 -1 -1 -1 -1 -1 -1 -1 -1 -1 -1 -1 -1 -1 -1 -1 -1
4 5 7 6 7 8 5 4 4 4 6 3 3 7 7 3 1 0 -0 -0 -0 -0 -1 -1 -1 -1 -1 -1 -1 -1 -1 -1 -1 -1 -1 -1 -1 -1 -1 -1 -0 -1 -1 -1 -1 -1 -1 -1 -1
2 6 7 7 7 7 4 5 4 3 4 4 4 4 3 1 1 1 1 1 0 0 -0 -0 -0 -1 -1 -1 -1 -1 -1 -1 -1 -1 -1 -1 -1 -1 -2 -1 -1 -1 -1 -1 -1 -1 -1 -2 -2
4 6 6 5 5 5 4 5 5 5 6 6 5 3 2 2 2 2 2 2 2 1 0 -0 -1 -1 -1 -1 -1 -1 -1 -1 -1 -1 -2 -1 -2 -2 -1 -2 -1 -1 -1 -2 -1 -1 -2 -2 -1
5 6 5 5 4 4 4 5 4 5 7 5 6 5 3 3 2 2 2 2 2 1 1 -0 -0 -1 -1 -1 -1 -1 -1 -1 -1 -2 -2 -2 -1 -1 -1 -1 -1 -2 -2 -1 -1 -1 -1 -1 -1
6 4 4 4 4 4 4 4 5 5 5 4 3 3 3 3 3 3 2 2 1 1 0 -0 -1 -1 -1 -1 -1 -1 -1 -1 -1 -1 -2 -1 -1 -1 -1 -1 -1 -1 -1 -1 -1 -1 -1 -1 -1
6 5 5 4 4 4 4 5 6 6 4 3 3 3 3 3 3 2 1 1 1 1 0 0 -0 -0 -1 -1 -1 -1 -1 -1 -1 -1 -1 -1 -1 -1 -1 -1 -1 -1 -1 -1 -1 -1 -1 -1 -1
5 4 5 4 4 4 5 6 6 6 4 4 4 4 3 3 3 2 2 2 1 1 1 -0 -0 -1 -1 -1 -1 -1 -1 -1 -0 -0 0 -0 0 -0 -0 -1 -1 -1 -1 -1 -1 -1 -1 -0 -1
4 6 5 4 4 4 4 8 7 5 4 5 4 4 3 3 2 2 2 2 1 1 0 -0 -0 -1 -1 -1 -1 -0 1 1 0 -0 -1 0 1 1 1 1 0 0 1 -1 -1 -0 -1 -0 -1
5 5 7 5 4 4 5 9 7 5 5 5 5 4 4 3 2 2 1 1 0 0 0 -0 -1 -1 -1 -1 -1 -1 -1 -1 -0 -0 -1 -1 -0 1 2 2 2 1 1 1 1 1 1 0 -0
6 8 8 7 4 5 6 10 7 5 5 5 5 4 4 3 3 3 3 1 1 0 -0 0 0 1 -0 -1 -1 -1 -1 0 1 1 0 -0 -1 -1 -1 0 1 0 1 1 0 0 -0 0 0
8 8 7 8 6 6 7 9 7 6 5 6 5 4 4 4 4 4 3 3 3 2 1 1 1 0 -0 1 0 1 1 1 1 1 0 -0 -0 -0 -0 -0 -0 -1 0 0 -0 -0 0 0 1
6 7 8 7 5 6 6 9 8 7 6 6 5 5 4 4 4 4 4 3 3 2 1 1 1 0 1 2 2 2 2 1 1 1 -0 -0 -0 -0 -1 0 -0 -1 -1 -1 -1 -0 0 0 -0
6 7 7 7 6 6 6 9 8 7 7 6 5 5 5 4 4 4 3 3 3 2 2 1 1 1 1 2 2 1 1 1 1 0 -0 -0 0 -0 0 -0 0 -1 -0 -0 -0 0 1 1 0
7 7 8 8 7 6 7 9 9 7 6 5 5 4 4 4 4 4 4 3 3 3 2 2 1 2 2 1 1 1 1 0 1 1 1 1 0 1 1 1 1 -0 -0 1 -0 -0 0 2 1
8 6 6 8 8 10 7 12 11 8 8 7 6 5 4 4 3 3 3 3 3 3 2 2 2 2 1 1 1 1 1 2 1 1 1 1 1 1 1 1 0 -0 0 -0 0 -0 0 0 2
7 5 6 7 8 9 10 10 8 8 10 8 6 5 4 3 3 4 3 3 2 3 2 1 1 2 1 0 1 1 2 2 2 2 2 0 1 1 2 1 0 -0 0 -1 -0 -0 0 1 1
5 6 6 7 8 11 9 10 11 10 8 7 6 5 4 4 3 3 3 3 3 3 2 1 2 1 1 1 0 2 2 2 3 3 3 3 2 2 1 1 0 -1 -0 0 -0 0 -0 1 1
6 7 11 12 11 12 8 9 8 8 6 5 6 5 4 4 3 3 3 3 3 3 2 2 2 2 2 1 1 2 2 2 2 3 3 3 3 2 1 1 0 1 0 -0 -1 -0 0 1 1
7 7 10 14 14 12 8 10 9 6 5 5 4 4 4 4 3 3 3 3 2 3 2 2 2 2 1 1 1 1 2 2 2 2 3 3 3 2 1 0 1 0 1 1 1 2 2 1 2
7 8 6 9 9 11 9 8 6 5 6 5 5 5 5 4 3 3 2 2 2 2 2 2 2 1 1 1 1 2 2 1 2 1 1 2 1 2 1 1 1 1 1 1 1 2 2 2 2
6 5 9 9 13 14 11 10 9 8 7 6 6 5 5 4 3 3 2 3 3 2 2 2 1 1 1 1 1 2 2 2 1 1 1 0 1 1 1 1 1 1 1 1 1 2 2 2 3
7 8 7 8 9 13 13 11 6 6 6 6 5 4 4 4 3 3 2 2 3 2 2 2 1 1 1 1 2 2 2 1 1 1 1 1 1 1 2 1 1 2 2 1 2 2 3 3 3
6 7 7 10 11 10 11 10 5 5 5 4 4 4 4 3 3 3 2 2 3 3 2 2 1 1 1 1 2 2 2 1 1 1 1 1 1 1 2 2 3 2 2 1 2 3 3 3 4